Location: Albuquerque Trailhead
(34.7934°N, 106.3736°W)
Time: 10:21:36
(UTC+00:00)

Exosat Rocket - Pass Details

Date: 29 October 2021
Orbit: 759 x 2516 km, 72.3° (Epoch: 08 December)

Event Time Altitude Azimuth Distance (km) Brightness Sun altitude
Exits shadow 10:36:47 36° 187° (S) 2,372 5.8 -34.8°
Maximum altitude 10:41:35 81° 105° (ESE) 1,867 5.3 -33.8°
Drops below altitude 10° 10:54:25 10° 21° (NNE) 4,909 7.9 -31.2°
Sets 10:58:25 0° 21° (NNE) 6,059 8.4 -30.3°
